• In Netherlands
  • List of Countries
  • For 7 days
  • Water Temperature
  • Satellite Maps
  • Weather Map
  • Weather Widgets
  • user-avatar
    Login

    Hourly Weather Luanda

    Today, 29 July, Saturday

    Time Temperature Precipitation Wind Pressure Humidity
    00:00 +22°C° 0 mm 3 mps 756 mmHg 84%
    01:00 +24°C° 0 mm 2 mps 757 mmHg 78%
    02:00 +23°C° 0 mm 2 mps 756 mmHg 78%
    03:00 +23°C° 0 mm 2 mps 756 mmHg 78%
    04:00 +23°C° 0 mm 2 mps 756 mmHg 79%
    05:00 +23°C° 0 mm 1 mps 756 mmHg 78%
    06:00 +23°C° 0 mm 1 mps 756 mmHg 77%
    07:00 +24°C° 0 mm 2 mps 756 mmHg 76%
    08:00 +25°C° 0 mm 1 mps 756 mmHg 68%
    09:00 +27°C° 0 mm 1 mps 756 mmHg 60%
    10:00 +29°C° 0 mm 1 mps 756 mmHg 53%
    11:00 +30°C° 0 mm 2 mps 756 mmHg 48%
    12:00 +33°C° 0 mm 3 mps 755 mmHg 43%
    13:00 +34°C° 0 mm 4 mps 755 mmHg 39%
    14:00 +32°C° 0 mm 4 mps 754 mmHg 46%
    15:00 +30°C° 0 mm 5 mps 754 mmHg 53%
    16:00 +28°C° 0 mm 5 mps 753 mmHg 60%
    17:00 +26°C° 0 mm 5 mps 754 mmHg 67%
    18:00 +25°C° 0 mm 5 mps 754 mmHg 74%
    19:00 +22°C° 0 mm 5 mps 754 mmHg 82%
    20:00 +22°C° 0 mm 4 mps 755 mmHg 83%
    21:00 +22°C° 0 mm 3 mps 755 mmHg 84%
    22:00 +22°C° 0 mm 3 mps 756 mmHg 85%
    23:00 +23°C° 0 mm 2 mps 756 mmHg 83%

    Tomorrow, 30 July, Sunday

    Time Temperature Precipitation Wind Pressure Humidity
    00:00 +23°C° 0 mm 2 mps 756 mmHg 81%
    01:00 +23°C° 0 mm 1 mps 756 mmHg 80%
    02:00 +23°C° 0 mm 1 mps 756 mmHg 80%
    03:00 +23°C° 0 mm 1 mps 756 mmHg 81%
    04:00 +23°C° 0 mm 1 mps 756 mmHg 81%
    05:00 +22°C° 0 mm 1 mps 756 mmHg 83%
    06:00 +22°C° 0 mm 1 mps 756 mmHg 84%
    07:00 +22°C° 0 mm 1 mps 756 mmHg 85%
    08:00 +24°C° 0 mm 1 mps 756 mmHg 76%
    09:00 +26°C° 0 mm 1 mps 756 mmHg 66%
    10:00 +28°C° 0 mm 1 mps 756 mmHg 56%
    11:00 +30°C° 0 mm 2 mps 756 mmHg 51%
    12:00 +31°C° 0 mm 3 mps 755 mmHg 45%
    13:00 +34°C° 0 mm 4 mps 754 mmHg 39%
    14:00 +32°C° 0 mm 5 mps 754 mmHg 46%
    15:00 +29°C° 0 mm 5 mps 753 mmHg 53%
    16:00 +28°C° 0 mm 5 mps 753 mmHg 60%
    17:00 +26°C° 0 mm 5 mps 753 mmHg 67%
    18:00 +25°C° 0 mm 5 mps 754 mmHg 74%
    19:00 +22°C° 0 mm 4 mps 754 mmHg 80%
    20:00 +22°C° 0 mm 4 mps 755 mmHg 83%
    21:00 +21°C° 0 mm 3 mps 756 mmHg 85%
    22:00 +21°C° 0 mm 2 mps 756 mmHg 88%
    23:00 +22°C° 0 mm 1 mps 756 mmHg 85%

    Day after tomorrow, 31 July, Monday

    Time Temperature Precipitation Wind Pressure Humidity
    00:00 +23°C° 0 mm 1 mps 756 mmHg 82%
    01:00 +21°C° 0 mm 0 mps 756 mmHg 79%
    02:00 +21°C° 0 mm 0 mps 756 mmHg 78%
    03:00 +23°C° 0 mm 1 mps 756 mmHg 77%
    04:00 +23°C° 0 mm 1 mps 756 mmHg 76%
    05:00 +21°C° 0 mm 0 mps 756 mmHg 75%
    06:00 +21°C° 0 mm 0 mps 756 mmHg 75%
    07:00 +21°C° 0 mm 0 mps 756 mmHg 74%
    08:00 +22°C° 0 mm 0 mps 756 mmHg 68%
    09:00 +24°C° 0 mm 0 mps 757 mmHg 63%
    10:00 +25°C° 0 mm 0 mps 757 mmHg 57%
    11:00 +28°C° 0 mm 1 mps 756 mmHg 52%
    12:00 +30°C° 0 mm 2 mps 756 mmHg 46%
    13:00 +31°C° 0 mm 3 mps 755 mmHg 41%
    14:00 +30°C° 0 mm 4 mps 754 mmHg 47%
    15:00 +28°C° 0 mm 5 mps 754 mmHg 53%
    16:00 +27°C° 0 mm 6 mps 753 mmHg 59%
    17:00 +26°C° 0 mm 5 mps 754 mmHg 66%
    18:00 +23°C° 0 mm 5 mps 755 mmHg 72%
    19:00 +22°C° 0 mm 4 mps 755 mmHg 78%
    20:00 +22°C° 0 mm 4 mps 756 mmHg 79%
    21:00 +22°C° 0 mm 4 mps 757 mmHg 81%
    22:00 +22°C° 0 mm 3 mps 757 mmHg 82%
    23:00 +22°C° 0 mm 3 mps 757 mmHg 80%

    1 August, Tuesday

    Time Temperature Precipitation Wind Pressure Humidity
    00:00 +23°C° 0 mm 2 mps 757 mmHg 78%
    01:00 +23°C° 0 mm 2 mps 757 mmHg 76%
    02:00 +23°C° 0 mm 2 mps 757 mmHg 76%
    03:00 +23°C° 0 mm 2 mps 757 mmHg 76%
    04:00 +23°C° 0 mm 2 mps 756 mmHg 76%
    05:00 +23°C° 0 mm 1 mps 757 mmHg 75%
    06:00 +23°C° 0 mm 1 mps 757 mmHg 74%
    07:00 +21°C° 0 mm 0 mps 757 mmHg 73%
    08:00 +24°C° 0 mm 1 mps 757 mmHg 67%
    09:00 +26°C° 0 mm 1 mps 757 mmHg 60%
    10:00 +27°C° 0 mm 2 mps 758 mmHg 54%
    11:00 +28°C° 0 mm 2 mps 757 mmHg 50%
    12:00 +29°C° 0 mm 3 mps 756 mmHg 46%
    13:00 +32°C° 0 mm 4 mps 755 mmHg 42%
    14:00 +29°C° 0 mm 4 mps 755 mmHg 46%
    15:00 +28°C° 0 mm 5 mps 754 mmHg 51%
    16:00 +27°C° 0 mm 5 mps 754 mmHg 55%
    17:00 +26°C° 0 mm 5 mps 754 mmHg 62%
    18:00 +23°C° 0 mm 5 mps 755 mmHg 69%
    19:00 +22°C° 0 mm 5 mps 756 mmHg 76%
    20:00 +22°C° 0 mm 4 mps 757 mmHg 79%
    21:00 +21°C° 0 mm 3 mps 757 mmHg 82%
    22:00 +21°C° 0 mm 3 mps 758 mmHg 84%
    23:00 +21°C° 0 mm 2 mps 757 mmHg 82%

    2 August, Wednesday

    Time Temperature Precipitation Wind Pressure Humidity
    00:00 +21°C° 0 mm 2 mps 757 mmHg 80%
    01:00 +23°C° 0 mm 1 mps 757 mmHg 78%
    02:00 +23°C° 0 mm 1 mps 757 mmHg 77%
    03:00 +23°C° 0 mm 1 mps 757 mmHg 77%
    04:00 +23°C° 0 mm 1 mps 756 mmHg 76%
    05:00 +23°C° 0 mm 1 mps 757 mmHg 76%
    06:00 +22°C° 0 mm 1 mps 757 mmHg 76%
    07:00 +22°C° 0 mm 1 mps 757 mmHg 76%
    08:00 +24°C° 0 mm 1 mps 757 mmHg 68%
    09:00 +26°C° 0 mm 1 mps 758 mmHg 61%
    10:00 +27°C° 0 mm 2 mps 758 mmHg 53%
    11:00 +28°C° 0 mm 2 mps 757 mmHg 51%
    12:00 +29°C° 0 mm 3 mps 756 mmHg 49%
    13:00 +30°C° 0 mm 4 mps 755 mmHg 46%
    14:00 +29°C° 0 mm 4 mps 755 mmHg 49%
    15:00 +28°C° 0 mm 5 mps 754 mmHg 52%
    16:00 +27°C° 0 mm 5 mps 754 mmHg 55%
    17:00 +26°C° 0 mm 4 mps 755 mmHg 62%
    18:00 +23°C° 0 mm 4 mps 755 mmHg 69%
    19:00 +22°C° 0 mm 3 mps 756 mmHg 75%
    20:00 +22°C° 0 mm 3 mps 756 mmHg 79%
    21:00 +21°C° 0 mm 3 mps 757 mmHg 82%
    22:00 +21°C° 0 mm 2 mps 757 mmHg 85%
    23:00 +21°C° 0 mm 2 mps 757 mmHg 85%

    3 August, Thursday

    Time Temperature Precipitation Wind Pressure Humidity
    00:00 +21°C° 0 mm 2 mps 757 mmHg 85%
    01:00 +21°C° 0 mm 2 mps 757 mmHg 85%
    02:00 +22°C° 0 mm 1 mps 756 mmHg 83%
    03:00 +22°C° 0 mm 1 mps 756 mmHg 82%
    04:00 +22°C° 0 mm 1 mps 756 mmHg 80%
    05:00 +22°C° 0 mm 1 mps 756 mmHg 79%
    06:00 +22°C° 0 mm 1 mps 757 mmHg 78%
    07:00 +23°C° 0 mm 1 mps 757 mmHg 77%
    08:00 +25°C° 0 mm 1 mps 757 mmHg 68%
    09:00 +27°C° 0 mm 1 mps 757 mmHg 59%
    10:00 +29°C° 0 mm 1 mps 757 mmHg 50%
    11:00 +30°C° 0 mm 2 mps 756 mmHg 46%
    12:00 +31°C° 0 mm 3 mps 755 mmHg 43%
    13:00 +33°C° 0 mm 4 mps 754 mmHg 39%
    14:00 +32°C° 0 mm 5 mps 754 mmHg 44%
    15:00 +29°C° 0 mm 5 mps 753 mmHg 49%
    16:00 +28°C° 0 mm 5 mps 753 mmHg 54%
    17:00 +26°C° 0 mm 5 mps 753 mmHg 61%
    18:00 +25°C° 0 mm 4 mps 754 mmHg 69%
    19:00 +22°C° 0 mm 4 mps 755 mmHg 77%
    20:00 +22°C° 0 mm 3 mps 755 mmHg 80%
    21:00 +21°C° 0 mm 3 mps 756 mmHg 82%
    22:00 +21°C° 0 mm 2 mps 757 mmHg 85%
    23:00 +21°C° 0 mm 2 mps 757 mmHg 85%
    Show more